GFSNE_2pvu_pres_000.txt.gz
Presure
308 304 304 244 320 265 241 227 222 203 203 197 196 192 193 188 199 167 200 196 170 192 190 197 196 185 184 183 205 205 208 164 182 167 188 176 197 190
310 310 317 150 340 354 372 262 242 231 220 204 203 201 201 188 196 176 194 181 202 200 195 181 185 198 202 189 193 206 206 214 186 188 193 195 192 189
323 320 368 369 366 359 353 355 375 306 240 226 219 204 194 207 200 198 187 183 186 200 196 181 180 187 185 195 178 183 206 204 197 183 210 199 181 196
344 398 383 382 370 382 390 389 354 363 378 429 224 225 210 201 201 195 195 196 186 199 202 206 191 193 184 193 201 162 166 184 154 186 196 187 177 205
354 376 472 472 402 489 449 368 376 383 362 358 417 246 228 215 203 203 197 196 205 190 200 201 194 190 184 190 191 196 180 199 190 194 200 163 199 181
483 476 382 467 282 374 311 492 416 371 382 363 421 337 261 227 220 213 211 211 199 202 203 212 207 188 204 217 196 185 189 191 198 205 194 203 208 197
422 413 414 417 425 454 471 480 484 423 366 380 344 413 298 263 232 138 206 212 192 203 205 203 198 201 180 196 207 203 197 192 201 207 185 197 215 172
379 373 370 375 383 397 428 457 495 486 377 369 387 394 396 296 253 236 223 217 221 205 212 206 206 184 202 192 192 163 178 196 199 189 203 206 191 200
358 351 351 356 365 375 385 409 456 499 498 379 363 364 403 380 270 253 240 222 218 190 210 207 208 206 207 180 206 206 200 204 206 195 195 176 192 214
350 349 353 360 366 367 367 379 418 493 509 497 376 395 367 380 337 269 247 234 225 221 221 216 215 205 216 211 204 199 198 206 202 197 206 204 206 202
338 332 338 348 345 356 372 362 388 465 518 510 469 360 416 372 374 284 261 243 232 226 221 217 215 216 209 213 203 204 216 210 195 203 203 202 210 205
336 344 350 347 350 353 361 369 370 396 528 504 488 382 367 355 373 357 268 252 241 226 225 212 209 220 212 218 204 208 197 196 207 189 210 197 202 205
360 351 356 351 351 349 358 370 371 389 512 514 484 479 364 366 356 368 359 265 253 237 226 219 214 214 212 204 203 203 201 203 203 203 201 197 196 205
351 372 350 348 347 352 367 365 368 373 422 504 500 484 406 353 417 358 363 295 265 248 237 227 219 212 214 211 206 205 204 200 201 198 188 204 200 195
363 366 358 360 351 379 400 365 366 378 391 418 510 503 493 371 361 384 357 357 346 269 249 239 228 224 218 213 212 210 205 204 205 200 204 203 201 205
372 374 365 366 359 365 363 362 379 417 439 434 443 477 485 479 359 372 333 352 353 347 284 253 238 227 223 217 211 209 206 212 206 203 212 196 201 207
396 379 359 360 356 351 373 375 379 409 457 441 454 478 453 463 413 340 390 328 345 347 335 325 268 252 239 232 227 222 216 215 215 214 214 215 216 217
392 392 401 387 388 392 376 372 390 394 407 474 459 455 469 494 466 365 341 395 319 329 347 329 322 321 308 254 245 238 235 230 225 224 223 225 224 222
318 320 324 377 394 354 385 386 388 386 389 402 427 488 473 483 486 493 347 342 371 311 310 349 332 321 312 308 264 283 276 251 249 248 243 243 243 239
301 305 315 291 304 333 308 319 366 392 403 395 411 414 424 448 494 502 506 347 335 376 308 298 303 332 286 313 309 306 295 293 290 287 284 283 280 279
271 290 278 284 307 303 289 306 307 315 323 407 426 415 421 422 438 443 439 514 337 311 366 345 292 297 300 285 316 284 315 319 313 307 302 301 301 309
278 261 269 293 279 284 291 297 299 313 305 318 331 416 412 405 399 408 425 462 450 370 288 340 337 334 326 327 325 306 288 281 281 283 283 287 290 288
259 267 277 272 284 266 270 276 285 290 301 297 308 297 319 393 378 364 373 396 422 438 290 282 284 329 332 331 332 328 315 319 326 324 330 346 336 324

GFSNE_2pvu_pres_006.txt.gz
Presure
312 293 315 317 309 299 177 302 238 225 227 224 215 224 217 205 202 212 199 194 192 192 205 186 176 203 165 202 179 171 177 173 177 174 196 189 191 182
324 315 313 303 308 306 306 306 290 303 249 230 227 227 232 219 220 216 211 216 199 200 193 198 196 180 174 161 180 199 167 194 162 162 170 180 184 173
332 330 320 319 310 310 317 321 327 331 339 260 241 230 227 229 226 221 207 206 206 200 205 207 192 201 196 192 179 178 182 170 181 162 162 180 179 177
325 331 329 328 327 331 338 340 345 341 338 346 277 326 273 245 240 229 223 215 217 208 208 192 184 183 208 198 200 205 196 173 188 195 197 182 170 198
320 322 327 332 337 335 331 330 330 333 339 299 349 341 325 317 305 254 240 227 218 208 212 201 195 198 194 207 170 207 194 195 187 173 177 187 201 181
342 345 349 355 365 371 353 339 335 337 338 109 342 339 335 331 328 320 318 281 240 225 220 210 187 207 199 194 204 199 194 214 194 188 209 206 179 199
379 363 350 347 349 356 363 367 374 382 387 390 380 385 283 339 339 273 338 330 325 277 245 235 221 213 184 203 188 189 198 203 203 189 144 193 163 184
477 464 456 445 441 427 423 424 435 333 414 369 419 300 441 480 219 300 503 155 351 344 332 338 317 249 225 186 209 196 201 183 196 172 207 188 192 211
406 397 393 391 390 389 394 384 382 383 383 388 388 386 390 396 436 460 232 491 526 398 393 363 348 321 260 239 223 217 215 203 177 178 195 201 198 177
368 364 359 353 352 353 353 354 355 358 361 367 376 372 377 380 386 419 450 485 449 497 378 397 403 390 328 324 301 247 227 218 209 181 209 210 206 200
345 340 340 346 345 349 347 337 335 337 341 343 344 348 356 367 362 388 413 460 386 474 399 373 401 384 331 318 321 241 239 237 192 225 156 212 197 200
333 335 337 339 346 338 342 334 345 350 349 337 349 342 345 344 366 364 381 411 478 484 453 366 385 381 364 362 315 337 266 255 239 232 229 183 218 215
333 336 339 345 346 345 340 342 349 364 369 353 334 344 350 343 346 360 369 379 411 489 451 356 379 369 362 350 340 330 293 263 246 238 184 227 220 191
344 353 356 356 358 355 354 373 360 356 349 349 333 339 349 338 335 349 369 371 396 475 458 353 370 359 413 380 327 312 295 265 253 242 238 209 200 181
281 391 391 396 383 366 369 365 356 357 362 369 365 352 349 351 339 349 370 368 390 472 475 355 366 371 336 351 315 298 292 267 259 246 241 171 205 231
352 318 322 393 393 365 369 349 350 347 349 362 378 379 378 356 346 358 366 369 385 472 467 357 360 372 326 345 314 298 295 283 264 253 242 240 239 233
291 312 311 305 310 331 365 363 362 367 384 395 442 437 383 382 369 361 368 365 392 469 470 445 348 382 318 373 318 304 300 289 269 254 249 245 239 235
296 301 292 296 299 310 316 311 393 399 390 393 437 463 413 383 374 375 377 382 396 468 457 451 343 348 330 345 330 305 301 294 279 265 255 246 241 239
297 293 295 298 305 307 304 304 399 397 395 392 408 454 440 423 405 390 395 407 467 450 448 447 349 342 385 317 355 308 290 291 288 277 258 248 249 244
290 263 276 282 286 292 301 312 304 426 417 421 432 444 453 449 444 436 432 465 457 439 445 450 372 341 389 318 372 303 297 286 281 276 264 265 244 241
276 284 277 271 276 281 288 297 301 317 367 383 394 395 417 464 465 458 445 453 452 449 446 452 432 345 311 328 377 299 286 283 282 276 275 265 259 258
288 263 279 281 282 279 281 286 298 294 305 314 353 361 388 408 441 457 486 433 438 438 443 453 449 346 332 383 339 311 283 287 281 273 267 266 262 263
284 279 249 280 278 273 277 284 287 290 301 294 293 316 325 351 384 397 409 465 447 438 440 449 452 437 334 336 351 374 277 274 275 280 281 263 261 264

GFSNE_2pvu_pres_009.txt.gz
Presure
336 334 333 332 342 344 347 325 308 303 279 275 282 230 230 233 219 211 211 214 213 208 181 209 195 180 175 191 187 185 176 163 174 198 163 172 175 174
325 321 319 325 330 335 339 341 327 303 302 274 274 285 235 233 231 218 205 203 204 208 213 194 203 202 166 203 176 190 187 180 165 184 210 173 191 186
319 320 317 318 319 321 327 332 340 341 315 295 284 282 288 272 229 230 228 218 220 223 226 225 220 190 177 207 197 195 211 177 189 164 203 168 183 186
316 316 316 320 323 323 320 324 329 340 328 295 274 316 276 244 289 249 237 229 225 213 205 217 217 211 213 208 199 182 170 213 162 201 178 206 197 170
320 322 321 325 330 331 336 339 332 333 336 340 326 308 263 304 295 261 292 250 237 223 218 215 207 208 227 214 185 186 211 171 162 178 173 209 169 186
341 344 345 352 344 347 350 347 346 345 345 349 345 334 332 316 308 309 310 280 303 278 236 217 218 218 211 219 202 195 199 215 198 215 225 178 179 177
339 346 372 383 389 384 383 384 392 388 371 346 349 350 345 338 336 333 336 334 329 330 322 310 228 221 213 211 205 202 174 201 194 206 217 180 167 200
317 388 463 471 470 468 458 460 461 464 403 362 380 394 356 343 345 341 336 332 335 332 334 330 327 283 229 221 202 197 203 183 190 204 215 224 181 210
458 435 416 406 400 402 400 401 402 404 412 412 435 416 346 356 331 364 339 275 184 331 337 284 333 322 328 271 232 196 212 189 218 205 193 206 192 213
408 399 386 377 364 372 369 365 364 363 365 367 381 388 395 264 290 337 349 369 269 336 222 138 332 345 326 330 331 284 235 220 204 200 197 203 213 188
346 346 345 343 346 348 356 349 352 358 358 342 354 356 364 372 376 385 342 405 410 349 367 384 340 245 338 342 262 329 313 298 221 221 215 214 190 199
331 331 333 337 338 340 343 343 345 333 344 343 349 354 349 353 189 360 368 376 391 397 420 438 481 387 398 345 349 346 337 318 284 257 231 225 222 216
323 343 354 357 359 360 360 355 351 353 346 352 352 343 353 355 340 346 351 359 367 377 378 396 443 476 489 497 385 346 349 337 325 307 282 277 243 222
367 293 350 382 381 404 396 381 371 366 360 372 372 373 375 380 377 351 344 347 361 367 366 380 392 468 478 484 495 378 363 333 337 320 308 286 299 265
309 281 311 294 329 396 389 375 380 368 366 361 358 354 354 352 356 354 348 342 354 353 362 358 383 397 460 460 463 417 364 363 332 314 313 296 277 292
284 304 279 303 306 321 391 383 370 362 354 357 360 364 355 361 366 360 351 344 354 355 350 351 369 379 471 451 440 432 363 365 351 323 313 297 284 290
289 280 296 294 310 313 321 391 381 378 370 372 387 397 404 413 411 383 370 352 348 351 347 351 368 368 463 453 428 407 354 339 351 335 323 295 287 295
284 281 295 283 293 302 312 362 401 390 391 401 415 425 454 470 449 416 383 358 349 360 351 352 367 367 462 465 415 388 343 349 355 335 333 299 282 284
285 280 288 268 291 295 302 303 314 382 412 420 483 476 454 425 420 406 385 381 357 350 352 373 358 375 452 453 403 359 342 362 327 316 314 293 295 277
281 277 289 284 262 287 286 295 293 291 325 361 420 465 459 444 430 404 382 375 373 370 365 359 357 431 451 440 389 346 335 359 320 306 304 292 305 286
277 285 287 287 284 272 286 290 287 293 302 319 328 350 439 462 466 458 439 423 406 388 385 393 445 443 441 434 381 341 353 332 324 302 292 294 292 297
280 291 283 252 280 286 279 279 283 287 279 281 291 317 331 343 440 460 476 442 461 456 456 440 431 427 434 425 378 340 354 386 303 309 295 291 291 289
278 256 266 277 264 278 282 280 280 273 284 301 278 295 290 304 328 349 461 441 430 436 438 433 424 430 434 423 384 342 346 329 330 311 293 288 281 285

GFSNE_2pvu_pres_015.txt.gz
Presure
327 332 327 334 333 335 332 396 325 310 401 380 367 362 369 378 388 300 282 277 271 249 231 217 201 202 204 224 227 221 219 214 209 227 218 197 172 203
304 308 309 307 307 307 315 308 302 276 351 374 356 348 353 355 368 390 316 276 281 284 236 226 224 217 212 204 232 225 222 208 208 204 207 195 202 172
284 276 274 276 276 313 295 281 337 360 365 360 352 335 335 346 345 365 381 327 257 261 285 237 224 224 217 216 220 230 197 213 214 189 197 195 207 196
254 305 304 311 356 291 346 351 350 344 343 345 339 334 322 327 336 341 375 341 329 295 247 280 237 229 225 214 211 218 224 201 216 210 201 197 177 205
369 303 355 351 345 344 342 341 343 345 349 343 335 333 323 320 328 335 344 360 327 321 292 248 308 246 225 226 216 209 218 213 210 210 202 195 195 208
359 352 348 346 348 350 353 355 358 361 361 364 359 337 332 320 315 322 336 348 330 313 313 275 264 301 245 236 216 212 210 206 206 215 197 199 207 194
348 351 354 359 357 347 337 334 346 377 358 355 349 348 358 332 327 317 320 339 342 320 310 306 270 297 309 241 225 219 217 215 207 216 194 197 194 194
351 353 347 334 332 360 325 324 456 454 465 485 336 397 357 364 342 332 328 328 340 330 316 310 308 275 299 269 239 224 224 217 210 206 205 214 204 197
348 334 331 337 347 413 383 380 377 388 413 419 427 436 460 482 371 366 339 335 335 335 331 320 311 304 284 307 261 240 231 229 219 216 215 207 206 206
326 344 312 402 372 366 356 346 347 352 361 373 387 399 402 422 446 478 360 362 341 341 337 331 315 313 304 303 301 262 247 227 227 223 214 209 204 205
332 399 377 356 348 368 378 374 375 369 364 354 356 361 367 378 391 410 422 381 363 351 347 339 335 315 315 312 307 304 301 249 233 227 214 209 215 218
399 365 355 367 312 320 321 329 337 340 395 376 367 356 350 360 365 372 390 412 427 358 356 353 339 339 319 316 311 308 313 309 257 242 232 231 225 219
355 357 329 312 307 304 302 308 335 348 365 358 385 387 370 350 346 355 371 378 402 410 400 351 359 346 339 322 317 312 313 313 314 288 251 230 222 227
348 322 313 296 301 293 318 326 430 412 390 396 402 393 399 370 351 351 353 366 347 387 395 411 400 355 352 338 328 319 316 311 314 313 316 298 267 239
322 313 297 290 280 297 294 310 422 408 397 388 382 381 382 381 369 353 353 353 349 363 347 386 396 411 349 349 346 337 329 321 317 298 314 310 311 297
318 303 285 301 282 287 291 294 326 323 335 346 406 399 388 378 380 380 373 363 353 358 355 360 371 385 392 371 343 345 346 344 331 322 320 319 323 319
293 295 282 275 288 283 282 289 294 307 306 316 332 346 429 413 404 396 385 380 380 382 375 359 365 367 376 379 400 384 355 340 348 119 118 337 336 335
294 288 293 276 281 290 282 292 275 289 287 304 306 321 345 499 499 488 423 408 384 372 370 373 383 371 365 367 367 203 397 387 381 355 339 345 359 358
298 281 290 276 282 276 274 290 285 281 290 295 289 317 324 355 474 454 443 517 419 405 385 375 366 369 383 357 359 357 362 377 383 396 395 362 387 389
293 275 284 283 277 278 273 274 284 285 291 290 284 297 303 316 348 425 428 421 440 466 418 408 407 370 358 374 366 357 360 350 361 362 364 387 397 390
293 279 270 284 275 279 279 273 268 289 288 290 299 282 289 307 315 342 379 426 407 409 431 463 432 390 363 362 364 372 355 349 349 355 353 362 388 445
288 282 266 280 276 273 265 269 279 275 281 285 289 299 299 281 302 311 334 346 443 411 399 396 403 371 364 361 351 346 341 338 352 348 354 365 433 406
286 281 267 278 284 270 266 266 259 282 281 288 288 294 290 297 274 294 301 306 339 467 434 396 392 386 380 369 360 356 347 348 354 347 354 373 413 386

GFSNE_2pvu_pres_021.txt.gz
Presure
313 305 301 297 303 308 308 288 279 281 289 277 296 298 297 300 322 351 339 309 294 276 260 266 249 251 231 236 233 248 233 215 213 199 205 181 187 191
282 282 277 274 280 282 283 288 275 271 278 290 250 253 274 304 306 310 320 346 373 316 285 270 278 259 252 239 241 235 245 236 217 209 214 206 187 193
400 394 359 304 297 282 286 272 276 274 286 261 272 301 274 266 274 282 289 298 314 342 384 337 286 280 268 269 255 244 242 269 228 216 208 208 207 204
404 415 383 389 382 374 378 368 362 280 302 278 289 283 270 279 264 269 274 274 279 293 318 356 385 369 279 273 282 267 248 265 251 232 221 205 204 204
367 376 395 418 418 418 414 411 410 409 411 414 355 318 298 276 277 311 397 396 391 323 299 314 330 400 391 364 323 278 275 265 260 240 232 219 209 202
393 397 398 395 393 390 390 390 390 391 392 392 389 381 385 384 384 379 378 374 376 380 321 385 317 326 347 420 338 306 278 263 282 278 239 229 226 207
395 394 391 386 380 378 377 373 369 363 363 369 372 370 373 376 376 377 377 371 364 364 363 363 367 367 326 334 410 357 279 273 255 270 244 243 227 228
384 381 378 374 371 365 355 352 353 353 357 362 358 347 344 346 348 347 353 358 363 379 362 361 362 365 302 303 326 405 363 273 277 275 266 260 249 232
379 370 362 362 351 347 353 352 351 341 337 339 351 393 362 352 385 372 366 360 344 351 372 378 366 361 360 316 283 387 395 341 338 299 266 252 260 251
361 357 355 342 349 351 347 327 328 355 378 366 361 363 364 365 366 367 367 370 393 435 351 351 387 365 358 361 371 373 383 337 330 309 259 254 242 264
348 348 343 340 349 327 319 363 340 330 335 329 330 328 328 336 340 355 375 382 365 388 417 366 348 385 364 356 360 368 368 375 325 316 265 256 247 259
347 348 347 347 314 310 333 315 314 317 308 331 332 331 345 327 347 341 345 395 372 358 379 408 403 351 386 361 354 358 368 362 350 314 280 247 255 243
359 356 342 312 357 324 317 305 305 311 314 316 381 432 442 423 404 398 379 361 380 365 359 383 400 432 346 377 357 354 357 353 356 334 305 260 245 252
341 339 305 357 333 316 303 308 295 303 293 307 300 327 341 352 424 410 401 402 404 384 370 365 377 387 385 347 371 355 352 351 348 352 365 283 262 253
314 316 319 325 309 304 309 297 294 294 290 300 302 290 311 315 331 400 433 401 393 393 410 373 363 377 385 388 347 374 355 349 351 344 349 345 281 268
371 313 316 325 316 306 297 284 286 290 286 290 289 295 303 318 307 331 441 439 415 389 399 400 361 365 373 376 391 344 372 352 348 351 349 351 367 278
363 381 343 314 299 304 293 294 281 286 281 286 290 289 294 306 315 309 474 391 451 406 388 397 380 358 365 371 376 386 348 373 353 347 346 344 336 351
309 336 289 311 311 292 286 280 287 273 280 279 286 285 281 292 306 305 326 465 471 475 406 392 385 364 348 353 361 374 389 383 383 361 348 338 341 350
321 312 312 297 309 297 288 275 285 272 279 276 265 253 288 295 279 311 303 328 383 426 491 412 391 381 365 352 349 363 370 387 388 345 364 352 339 336
337 328 311 298 297 295 288 277 282 278 280 280 280 282 278 286 291 300 310 316 287 389 409 473 445 387 382 367 356 349 351 357 371 386 402 399 364 346
331 319 306 301 291 290 280 278 278 278 280 270 266 271 279 287 289 295 301 314 319 330 383 407 465 465 387 378 371 361 353 350 353 362 374 386 384 352
321 314 303 298 289 288 277 280 271 279 275 266 271 265 280 271 289 297 298 303 312 327 319 371 416 464 474 389 377 372 372 364 356 356 355 365 370 385
316 311 301 299 288 280 283 280 270 279 277 281 273 278 277 276 289 283 296 292 309 304 313 320 337 429 399 483 412 380 376 373 373 372 368 355 356 363

GFSNE_2pvu_pres_024.txt.gz
Presure
308 320 313 311 309 317 284 285 307 317 299 308 307 309 306 305 303 301 305 297 302 267 247 247 223 217 216 215 204 224 229 246 213 159 175 203 191 204
315 287 354 351 360 344 340 346 324 290 285 277 289 294 307 306 308 309 311 309 318 302 308 277 271 246 228 216 210 216 215 226 246 222 207 208 189 189
419 412 407 398 401 398 397 391 390 391 379 347 287 275 279 294 306 286 285 293 294 293 302 326 307 310 281 262 238 215 206 207 220 235 242 223 166 164
379 380 393 379 375 373 378 383 398 382 387 385 379 301 283 257 277 275 268 277 288 294 306 316 329 338 313 281 271 260 258 217 225 222 230 231 145 207
403 395 392 390 390 389 386 382 371 380 377 379 375 368 371 368 275 255 258 255 263 279 301 276 275 325 339 351 312 268 265 264 239 231 225 230 228 237
411 404 397 388 384 378 383 386 390 399 403 409 413 408 416 418 417 387 337 267 260 262 270 291 312 290 309 327 338 357 295 272 267 258 244 218 226 233
389 399 398 398 391 388 387 387 387 385 387 393 392 389 390 390 390 391 396 396 401 401 408 282 291 318 317 308 320 327 339 342 285 256 260 254 246 234
363 370 386 392 388 387 386 386 380 377 376 374 368 364 364 371 373 375 380 380 380 382 387 392 315 292 285 284 290 305 309 316 354 298 287 269 258 252
346 351 358 363 370 375 370 364 362 354 351 355 359 357 359 361 368 371 372 377 378 382 393 391 394 398 396 395 399 345 332 300 299 342 321 291 291 258
354 350 350 355 362 359 353 346 345 347 352 359 397 413 362 363 390 388 387 372 350 374 358 355 362 371 384 399 394 392 389 395 343 311 334 370 291 299
341 353 355 344 347 345 339 334 340 352 352 334 327 329 332 343 347 350 352 361 378 376 373 377 382 383 354 363 387 393 385 383 376 381 312 338 373 307
339 339 351 349 339 339 339 323 328 334 311 310 312 306 411 451 335 323 333 341 343 347 346 381 387 378 383 405 418 365 389 379 376 378 327 318 340 369
346 319 340 354 350 340 335 320 306 323 301 314 315 309 308 337 358 417 434 421 395 354 370 369 348 394 384 381 428 458 353 387 370 369 342 311 319 395
330 341 336 351 337 315 323 304 302 294 297 301 295 301 296 303 310 317 330 344 421 402 397 396 379 338 382 374 389 425 475 351 381 365 334 313 371 378
485 331 314 331 309 335 313 306 294 299 298 291 296 298 291 307 286 328 298 322 441 427 409 404 396 391 384 373 373 401 436 449 361 369 359 339 294 357
446 320 322 314 305 317 304 297 291 296 281 289 290 289 298 298 306 299 321 316 468 453 420 414 395 393 407 381 364 375 399 446 343 376 360 351 353 279
406 370 334 312 320 315 296 293 301 287 289 286 288 284 288 293 293 303 301 326 337 479 481 434 411 393 390 407 369 361 383 401 452 335 367 353 341 351
377 330 315 338 325 309 294 285 291 282 282 285 279 280 277 277 283 291 300 314 332 372 449 466 422 397 382 397 376 356 364 374 390 411 348 355 348 341
359 373 352 327 315 291 299 296 291 289 273 279 277 280 279 286 280 291 301 296 317 331 359 404 502 416 388 389 385 364 350 368 377 380 337 355 352 342
365 353 338 321 308 295 285 299 291 291 273 280 278 285 277 278 277 279 297 305 304 325 357 362 407 504 408 384 384 371 355 356 365 373 380 344 355 353
353 342 327 320 297 292 284 291 288 288 275 278 276 278 266 264 270 279 287 294 302 316 329 355 365 461 487 399 381 373 359 349 345 358 375 385 376 352
343 334 315 316 298 291 286 290 285 285 277 273 277 275 266 274 275 279 284 294 291 304 314 333 337 363 489 463 388 379 370 358 350 347 352 368 380 392
336 325 316 311 298 291 286 290 277 281 274 277 269 278 279 278 283 279 281 278 297 293 306 315 336 331 348 495 445 386 374 375 359 349 348 348 356 374

GFSNE_2pvu_pres_027.txt.gz
Presure
343 311 306 318 316 334 318 307 302 300 317 318 316 299 305 315 317 308 316 326 332 338 334 244 241 244 224 208 216 220 232 215 203 204 199 211 203 202
444 440 432 425 423 422 415 412 419 427 420 349 298 287 285 284 305 296 320 320 328 333 324 320 261 244 245 234 223 216 223 220 230 204 205 197 187 205
435 429 424 414 402 391 385 391 393 391 400 396 400 406 406 347 305 282 288 313 317 328 321 320 316 276 253 246 246 228 218 214 225 240 213 202 204 200
420 421 417 411 406 404 393 387 379 381 381 379 374 383 385 389 412 359 343 279 300 319 322 320 317 317 281 261 251 249 236 221 215 224 240 225 204 202
390 390 390 396 408 402 390 387 384 382 382 381 378 363 367 374 383 385 389 352 284 293 314 314 318 315 315 276 260 244 254 254 223 223 216 241 234 223
367 368 371 371 374 387 404 395 384 380 376 376 372 370 364 361 367 383 391 394 392 327 293 307 321 320 321 327 299 295 284 259 258 243 236 222 221 244
357 354 353 354 354 361 377 398 395 393 389 387 381 373 376 382 391 392 415 417 414 397 392 306 295 309 322 327 336 339 325 299 302 265 258 238 231 227
364 358 353 346 341 343 353 365 390 386 385 386 385 385 387 390 390 391 395 400 410 415 422 432 335 295 300 307 294 305 310 317 324 303 296 277 259 240
347 355 368 363 356 349 342 352 359 374 378 373 370 366 366 363 366 369 368 373 378 379 383 392 396 409 321 272 273 281 290 296 297 306 317 317 286 290
347 346 343 351 352 358 350 346 357 358 358 353 348 346 352 353 355 362 364 370 371 368 374 382 384 393 399 400 403 310 277 277 291 304 335 327 329 320
440 340 346 337 335 341 354 345 351 346 346 340 351 363 345 340 340 344 348 365 375 382 387 396 396 402 393 394 399 404 405 387 292 279 305 278 275 332
447 458 475 340 328 339 353 346 345 340 345 331 318 318 306 305 308 428 458 457 350 337 338 353 360 383 390 398 402 393 387 397 405 414 299 295 306 300
448 460 479 340 311 341 356 347 343 327 319 306 302 313 310 300 307 312 330 340 355 368 437 380 340 346 346 370 388 388 393 366 381 390 404 311 296 313
457 471 486 330 321 348 355 350 329 308 308 302 299 292 297 301 297 312 308 310 314 320 333 359 416 408 408 347 349 359 394 391 385 375 371 388 368 290
464 468 464 321 325 362 350 325 314 302 297 297 288 297 292 295 300 299 297 305 320 330 336 354 431 411 404 396 391 391 355 368 396 387 443 357 380 396
439 434 428 318 325 329 314 316 305 298 293 288 294 285 293 287 289 294 300 301 310 320 342 494 476 437 423 404 389 382 387 344 386 380 422 461 364 381
408 403 355 316 317 312 314 303 307 293 293 287 286 290 285 290 288 293 287 296 301 313 340 371 501 471 429 423 403 401 398 385 375 372 396 438 474 349
388 366 334 314 308 311 314 302 301 289 286 293 279 286 284 285 283 282 287 289 300 313 328 349 392 457 451 424 413 393 397 403 374 369 373 421 449 366
363 358 329 314 305 307 311 298 297 289 290 291 284 279 281 280 285 288 283 285 290 299 306 332 353 380 501 433 411 394 391 408 385 365 365 401 433 405
354 347 326 314 304 308 306 299 277 290 288 286 284 273 283 277 286 275 265 272 286 293 303 311 332 351 464 490 411 395 385 395 380 360 358 382 404 404
350 347 333 326 326 309 302 298 281 289 285 287 288 273 279 279 282 272 279 268 281 285 298 301 319 339 356 484 443 393 376 385 379 357 349 368 380 395
345 340 341 327 321 307 301 294 280 289 284 290 281 285 277 276 277 280 280 289 278 283 283 301 306 323 338 358 476 407 377 378 373 366 348 351 371 373
339 335 330 323 317 304 306 293 283 289 279 286 285 284 276 276 277 280 282 284 285 277 289 288 303 307 322 338 349 449 401 375 370 366 356 342 350 363